Terminal Aerodrome Forecast
Issued by NWS Boston, MA

Home | Current Version | Previous Version | Text Only | Print | Product List | Glossary On
Versions: 1 2 3 4 5 6 7 8 9 10 11 12 13 14 15 16 17 18 19 20 21 22 23 24 25 26 27 28 29 30 31 32 33 34 35 36 37 38 39 40 41 42 43 44 45 46 47 48 49 50
000
FTUS41 KBOX 252335
TAFPVD
TAF
KPVD 252335Z 2600/2624 03007KT P6SM BKN015 BKN045 OVC120
     FM260200 03005KT P6SM BKN200
     FM260900 03006KT P6SM SCT030
     FM261100 05006KT P6SM BKN030
     FM261200 05007KT P6SM BKN050
     FM261700 09008KT P6SM OVC030
     FM261900 10008KT P6SM OVC040
     FM262100 11009KT P6SM VCSH OVC045=

USA.gov is the U.S. government's official web portal to all federal, state and local government web resources and services.